Location: Observatory
(52.1446°N, 0.4624°W)
Time: 11:05:51
(UTC+01:00)

ISS - Pass Details

Date: 09 July 2020
Orbit: 417 x 420 km, 51.6° (Epoch: 02 July)

Event Time Altitude Azimuth Distance (km) Brightness Sun altitude
Exits shadow 03:09:33 - 258° (WSW) 1,697 -1.1 -10.9°
Reaches altitude 10° 03:10:02 10° 258° (WSW) 1,497 -1.3 -10.9°
Maximum altitude 03:13:23 78° 173° (S) 431 -3.8 -10.6°
Drops below altitude 10° 03:16:45 10° 86° (E) 1,498 -0.5 -10.3°
Sets 03:18:51 0° 85° (E) 2,361 0.6 -10.2°
